Regional Weather Roundup
Issued by NWS Charleston, SC

Current Version | Previous Version | Text Only | Print | Product List | Glossary Off
Versions: 1 2 3 4 5 6 7 8 9 10 11 12 13 14 15 16 17 18 19 20 21 22 23 24 25 26 27 28 29 30 31 32 33 34 35 36 37 38 39 40 41 42 43 44 45 46 47 48 49 50

000
ASUS42 KCHS 242027
RWRCHS

REGIONAL WEATHER ROUNDUP
NATIONAL WEATHER SERVICE CHARLESTON SC
400 PM EDT WED MAY 24 2017

NOTE: "FAIR" INDICATES FEW OR NO CLOUDS BELOW 12,000 FEET WITH NO
SIGNIFICANT WEATHER AND/OR OBSTRUCTIONS TO VISIBILITY.

NOT ALL STATIONS ARE QUALITY CONTROLLED. USE DATA WITH CAUTION...
ESPECIALLY DEWPOINT OBSERVATIONS.

SCZ027-030-031-034>040-042>050-242100-
...SOUTHEAST SOUTH CAROLINA...

CITY           SKY/WX    TMP DP  RH WIND       PRES   REMARKS
N CHARLESTON   LGT RAIN  70  66  87 S22G28    29.64F
WATERFRONT PRK   N/A     72  69  90 SW15G23   29.64F
JOHNS ISLAND   MOCLDY    72  70  94 SE8G17    29.60F FOG
PINOPOLIS        N/A     72  70  94 SW8G15    29.54F
MONCKS CORNER  LGT RAIN  68  64  88 S16G26    29.59F
SUMMERVILLE    FAIR      70  64  83 SE14G21   29.55F
BEAUFORT MCAS  CLOUDY    71  71 100 SE13G18   29.60F
BEAUFORT ARPT  FAIR      72  70  94 S8        29.59F FOG
HILTON HEAD IS DRIZZLE   72  72 100 S9        29.65F
WALTERBORO     CLOUDY    70  66  88 S13       29.59F
ALLENDALE      FAIR      72  64  78 S12G18    29.56S

...SOUTHERN MIDLANDS AND PEE DEE...

CITY           SKY/WX    TMP DP  RH WIND       PRES   REMARKS
GEORGETOWN     CLOUDY    73  68  83 SW18G25   29.63F
KINGSTREE      FAIR      70  68  94 S12G18    29.57F
ORANGEBURG     CLOUDY    71  67  87 S17G30    29.57F
BARNWELL       FAIR      75  68  78 S16G23    29.56S
AIKEN          HVY RAIN  70  66  88 S24G33    29.57F
MANNING        FAIR      72  68  88 S22       29.57R
COLUMBIA       TSTM      71  68  90 SW7       29.54F
SUMTER         PTSUNNY   70  64  83 S24G32    29.54S
FLORENCE       CLOUDY    71  69  93 SW13      29.56F
MYRTLE BEACH   PTSUNNY   77  73  88 S22       29.62
N MYRTLE BEACH CLOUDY    78  73  84 S20G28    29.62F

$$

GAZ063-065-086>088-099>101-113>116-118-119-134>141-150-242100-
...SOUTHEAST GEORGIA...

CITY           SKY/WX    TMP DP  RH WIND       PRES   REMARKS
SAVANNAH ARPT  CLOUDY    74  68  81 SE12      29.59F
HUNTER AAF     CLOUDY    71  71 100 SE9       29.57F
FORT STEWART   CLOUDY    72  68  88 SE7       29.58F
STATESBORO     CLOUDY    72  72 100 S14G20    29.58F
SYLVANIA       CLOUDY    72  68  89 S8        29.59S
CLAXTON        CLOUDY    71  71 100 SE7       29.59F

...CSRA...CENTRAL AND FAR SOUTHEAST GEORGIA...

CITY           SKY/WX    TMP DP  RH WIND       PRES   REMARKS
THOMSON        LGT RAIN  68  67  96 SW9       29.58F
AUGUSTA-BUSH   HVY RAIN  74  70  87 SW7       29.53S FOG
AUGUSTA-DANIEL LGT RAIN  71  66  84 SW12      29.54F
SWAINSBORO     CLOUDY    73  68  83 S13       29.57S
VIDALIA        CLOUDY    73  68  83 S12       29.58S
EASTMAN        HVY RAIN  72  63  72 SW13G20   29.59R
HAZLEHURST     CLOUDY    75  71  88 S13       29.56F
ALMA           CLOUDY    73  69  87 S10       29.58S
WAYCROSS       DRIZZLE   75  75 100 S10       29.59F
JESUP          LGT RAIN  73  68  83 S6        29.62R
BAXLEY         CLOUDY    72  72 100 S10       29.57F
BRUNSWICK      PTSUNNY   72  72 100 S9        29.64S
SAINT SIMONS   CLOUDY    74  71  91 S9        29.63F

$$

SCZ027-028-034-036>038-045-046-048>050-GAZ119-141-242100-
...LAKE AND SUPPLEMENTAL COASTAL OBSERVATIONS...

STATION/POSITION TIME  TEMP    WIND        PRES    WAVE   SWELL
                       AIR SEA DIR/SP/G            HT/PER HT/PER/DIR
                 (UTC) (F)     (DEG/KT/KT) (MB)    (FT/S) (FT/S/D)
WINYAH BAY       1945   78     220/ 21     1003.0F
LAKE MURRAY      1950   73     180/ 10/ 16 1000.3F
ACE BASIN NERRS  1945   70     170/  2     1004.0F
FORT PULASKI     2000   73     170/  7/ 11 1002.7
SAPELO ISLAND    2000   72     170/ 10     1003.0

$$

ANZ835-935-AMZ111-154-330-350-352-354-370-450-454-472-242100-
...C-MAN AND BUOY OBSERVATIONS...

STATION/POSITION TIME  TEMP    WIND        PRES    WAVE   SWELL
                       AIR SEA DIR/SP/G            HT/PER HT/PER/DIR
                 (UTC) (F)     (DEG/KT/KT) (MB)    (FT/S) (FT/S/D)
BUOY 41004       2010   73 77  240/ 25/ 31 1004.0
BUOY 41008       1950   73 78  200/ 12/ 16 1003.3F   4/ 5   2/130/ 6
FOLLY BEACH CMAN 2000   73     210/ 26/ 30 1005.1F
CAPERS NEARSHORE 2008   76 77  220/ 25/ 33 1003.2F
FRIPP NEARSHORE  2008   73 78  180/ 16     1002.0F


STATION/POSITION TIME  TEMP    WIND        PRES    WAVE   SWELL
                       AIR SEA DIR/SP/G            HT/PER HT/PER/DIR
                 (UTC) (F)     (DEG/KT/KT) (MB)    (FT/S) (FT/S/D)
5E ST. MARYS GA  2000      79                N/A     3/ 5
FRYING PAN BUOY  2010   77 77  190/ 16/ 21 1004.3
BUOY 41025       1950   76 75  220/  8/ 10 1005.9F   4/ 8   3/180/ 8
CAPE LOOKOUT NC  2000   77     200/ 10/ 13 1005.0F
BUOY 41002       1950   78 76  190/ 19/ 23 1009.7F   8/ 8   2/ 10/24
BUOY 41010       2010   81 79  180/ 17/ 21 1007.3
ST AUGUSTINE FL  2000   76 78  240/ 10/ 15 1006.2R


$$




USA.gov is the U.S. government's official web portal to all federal, state and local government web resources and services.